SCP
0 0 0 0 0 0 0 0 0 0 0 0 0 0 -0 0 0 0 0 0 0 0 0 0 0 0 0 0 0 0 0 0 0 0 0 0 0 0
0 0 0 0 0 0 0 0 0 0 0 0 0 0 0 0 0 0 0 0 0 0 0 0 0 0 0 0 0 0 0 0 0 0 0 0 0 0
0 0 0 0 0 0 0 0 0 0 0 0 0 0 0 0 0 0 0 0 0 0 0 0 0 0 0 0 0 0 0 0 0 0 0 0 0 0
0 0 0 0 0 0 0 0 0 0 0 0 0 0 0 0 -0 -0 0 0 0 0 0 0 0 0 0 0 0 0 0 0 0 0 0 0 0 0
0 0 0 0 0 0 0 0 0 0 0 0 0 0 0 0 -0 -0 0 0 0 0 0 0 0 0 0 0 0 0 0 0 0 0 0 0 0 0
0 0 0 0 0 0 0 0 0 0 0 0 0 0 0 0 0 0 0 0 0 0 0 0 0 0 0 0 0 0 0 0 0 0 0 0 0 0
0 0 0 0 0 0 0 0 0 0 0 0 0 0 0 0 0 0 0 0 0 0 0 0 0 0 0 0 0 0 0 0 0 0 0 0 0 0
0 0 0 0 0 0 0 0 0 0 0 0 0 0 0 0 0 0 0 0 0 0 0 0 0 0 0 0 0 0 0 0 0 0 0 0 0 0
0 0 0 0 0 0 0 0 0 0 0 0 0 0 0 0 0 0 0 0 0 0 0 0 0 0 0 0 0 0 0 0 0 0 0 0 0 0
0 0 0 0 0 0 0 0 0 0 0 0 0 0 0 0 0 0 0 0 0 0 0 0 0 0 0 0 0 0 0 0 0 0 0 0 0 0
0 0 0 0 0 0 0 0 0 0 0 0 0 0 0 0 0 0 0 0 0 0 0 0 0 0 0 0 0 0 0 0 0 0 0 0 0 0
0 0 0 0 0 0 0 0 0 0 0 0 0 0 0 0 0 0 0 0 0 0 0 0 0 0 0 0 0 0 0 0 0 0 0 0 0 0
0 0 0 0 0 0 0 0 0 0 0 0 0 0 0 0 0 0 0 0 0 0 0 0 0 0 0 0 0 0 0 0 0 0 0 0 0 0
0 0 0 0 0 0 0 0 0 0 0 0 0 0 0 0 0 0 0 0 0 0 0 0 0 0 0 0 0 0 0 0 0 0 0 0 0 0
0 0 0 0 0 0 0 0 0 0 0 0 0 0 0 0 0 0 0 0 0 0 0 0 0 0 0 0 0 0 0 0 0 0 0 0 0 0
0 0 0 0 0 0 0 0 0 0 0 0 0 0 0 0 0 0 0 0 0 0 0 0 0 0 0 0 0 0 0 0 0 0 0 0 0 0
0 0 0 0 0 0 0 0 0 0 0 0 0 0 0 0 0 0 0 0 0 0 0 0 0 0 0 0 0 0 0 0 0 0 0 0 0 0
0 0 0 0 0 0 0 0 0 0 0 0 0 0 0 0 0 0 0 0 0 0 0 0 0 0 0 0 0 0 0 0 0 0 0 0 0 0
0 0 0 0 0 0 0 0 0 0 0 0 0 0 0 0 0 0 0 0 0 0 0 0 0 0 0 0 0 0 0 0 0 0 0 0 0 0
0 0 0 0 0 0 0 0 0 0 0 0 0 0 0 0 0 0 0 0 0 0 0 0 0 0 0 0 0 0 0 0 0 0 0 0 0 0
0 0 0 0 0 0 0 0 0 0 0 0 0 0 0 0 0 0 0 0 0 0 0 0 0 0 0 0 0 0 0 0 0 0 0 0 0 0
0 0 0 0 0 0 0 0 0 0 0 0 0 0 0 0 0 0 0 0 0 0 0 0 0 0 0 0 0 0 0 0 0 0 0 0 0 0
0 0 0 0 0 0 0 0 0 0 0 0 0 0 0 0 0 0 0 0 0 0 0 0 0 0 0 0 0 0 0 0 0 0 0 0 0 0
Wind_Speed
3 3 2 2 2 2 3 3 4 7 9 5 4 6 8 8 16 12 11 22 28 28 28 28 28 28 28 27 27 26 26 25 24 24 24 25 25 24
2 3 3 2 3 3 3 3 3 5 9 7 6 8 10 12 19 14 13 27 26 27 27 28 28 29 29 28 28 27 27 26 26 25 25 25 25 25
2 2 3 3 2 3 3 3 3 4 10 13 8 7 10 12 13 12 12 11 12 24 27 28 28 28 28 28 28 28 27 27 26 26 25 25 25 25
2 2 3 3 3 3 3 3 3 4 7 15 14 9 9 10 12 14 13 13 10 21 26 27 27 27 28 28 28 27 27 27 26 26 26 25 25 25
3 3 4 4 4 3 4 4 4 6 5 10 15 11 9 9 12 13 12 9 12 16 22 24 26 28 28 27 27 27 26 26 26 25 25 25 25 25
3 4 4 4 4 4 5 5 5 6 6 9 12 12 10 9 9 11 13 9 10 12 16 19 22 23 25 28 28 28 28 27 26 25 24 24 24 24
4 5 5 7 9 8 7 5 5 5 6 9 12 12 11 11 11 11 14 13 9 9 10 8 10 10 13 20 24 27 29 28 28 27 25 24 23 23
6 5 5 6 9 13 14 14 13 9 7 9 12 14 15 14 13 13 14 16 15 5 9 11 10 11 9 9 21 28 28 29 28 28 27 26 25 24
6 6 6 5 5 7 11 15 14 17 18 15 16 16 17 16 17 18 16 17 17 13 14 16 9 11 9 13 25 28 29 29 28 28 27 27 26 25
7 7 7 6 7 9 9 9 10 11 15 13 14 16 16 16 17 18 19 18 16 12 13 15 11 11 11 8 20 27 28 26 24 24 24 25 25 25
8 7 7 7 12 15 10 9 11 12 16 20 23 23 28 28 24 14 12 13 14 11 9 12 13 13 10 8 12 22 23 23 25 27 27 27 26 25
6 7 9 11 13 14 8 7 10 12 11 12 15 18 17 18 22 14 11 11 12 10 7 8 11 11 10 5 6 7 11 21 28 28 28 27 26 16
5 5 6 13 14 15 13 7 12 13 7 8 10 11 11 10 11 11 11 11 12 12 11 10 11 11 11 11 10 11 11 11 12 15 20 25 26 21
7 6 7 13 15 15 11 12 17 12 4 6 7 8 9 9 10 12 13 13 13 16 16 14 12 12 13 14 12 9 8 9 11 12 11 18 21 24
7 12 14 16 14 9 11 14 9 3 4 6 7 9 9 10 11 11 12 12 13 14 13 14 14 12 12 13 13 13 13 12 11 10 9 9 10 10
8 8 13 14 11 8 6 7 4 4 5 6 8 9 9 9 9 9 10 10 11 11 10 11 12 14 13 13 13 14 13 10 9 10 11 11 10 10
6 3 3 3 3 3 4 4 4 4 5 5 6 8 9 9 9 8 8 9 10 12 13 10 9 10 12 13 14 14 13 13 12 11 11 12 11 10
10 5 5 5 5 5 4 4 4 4 5 5 5 7 8 9 10 9 9 9 10 11 12 12 12 13 10 9 13 12 11 12 11 11 10 11 13 11
10 6 5 5 5 5 4 4 4 4 4 5 6 6 7 8 9 10 10 10 10 11 11 10 10 11 12 13 9 9 10 11 10 9 8 9 12 11
5 5 5 5 5 5 5 5 4 4 4 5 5 6 6 8 9 9 9 10 11 12 12 10 9 10 12 13 14 14 13 9 8 9 8 7 9 13
5 5 5 5 5 5 5 4 4 5 5 5 5 6 6 7 8 9 10 12 12 11 12 12 12 15 13 10 10 8 6 9 9 7 6 6 6 5
4 5 5 5 5 5 4 4 4 5 5 5 5 5 6 6 8 10 10 10 10 11 12 12 12 11 10 10 10 10 8 7 9 10 9 9 5 4
5 4 4 5 5 5 4 5 6 5 5 5 5 5 6 6 7 8 9 9 10 11 12 12 11 9 9 9 9 8 8 7 6 5 5 12 13 10
Wind_Direction
21 5 351 336 342 333 320 311 301 306 307 296 317 340 333 323 321 321 321 318 316 313 310 308 306 305 304 303 301 300 298 295 291 288 285 281 276 268
3 356 346 333 329 322 315 308 295 285 291 291 306 321 328 324 320 321 316 315 313 311 309 307 305 303 302 301 300 298 296 295 292 288 285 283 279 273
333 343 324 320 322 320 312 302 297 298 292 295 302 317 323 320 315 310 310 307 308 312 311 308 306 304 302 301 300 299 297 295 293 291 287 283 281 277
304 310 302 310 308 299 300 304 299 290 289 298 305 315 315 313 310 312 312 311 311 312 314 315 314 313 311 307 304 301 299 296 294 291 289 286 283 280
274 279 283 292 289 289 296 292 288 293 289 295 300 309 310 311 310 306 305 307 313 314 317 315 314 313 313 314 313 312 310 304 298 293 289 285 282 279
260 260 264 268 275 286 291 282 286 289 292 294 297 304 307 305 303 310 309 305 305 309 307 308 308 314 317 315 314 313 310 308 305 301 296 291 287 282
258 255 257 266 276 281 281 275 281 282 287 292 296 300 303 309 309 308 304 304 296 296 295 297 304 301 303 304 307 305 305 306 307 305 301 298 294 289
263 261 260 262 274 285 291 293 291 290 291 290 293 294 299 302 302 300 301 301 301 291 291 294 292 291 291 288 296 301 302 303 303 302 300 297 293 291
259 263 267 266 269 278 286 291 293 291 290 289 290 291 295 297 297 295 291 290 292 299 298 294 289 288 287 293 299 300 300 300 300 299 297 295 292 289
249 251 260 266 269 279 279 280 283 287 288 288 285 288 292 294 292 293 295 293 290 289 287 290 293 290 291 285 295 295 297 300 305 309 309 304 297 290
251 249 252 257 270 281 286 286 291 293 298 299 300 301 302 304 303 301 297 295 296 295 289 287 294 295 291 286 287 292 299 308 309 309 308 306 302 296
249 251 252 259 267 278 282 285 294 300 306 309 309 307 305 303 303 298 298 297 299 300 290 290 300 308 302 273 278 298 300 298 297 299 301 301 302 301
241 242 249 265 273 281 291 289 292 305 320 318 310 305 304 303 303 304 306 305 302 295 298 304 299 297 290 293 292 288 283 285 289 290 294 295 295 295
234 241 250 265 274 284 294 296 303 316 321 305 301 302 304 305 307 308 305 300 291 288 291 293 288 288 289 290 292 290 285 284 284 284 284 289 290 290
234 245 255 264 276 288 293 296 307 305 289 291 295 298 301 302 306 304 302 298 292 288 287 286 283 284 280 281 285 288 293 291 279 275 278 282 283 285
259 258 263 269 273 277 280 287 279 269 273 281 288 295 303 304 302 305 308 312 307 302 294 285 284 285 285 282 281 283 282 278 281 280 280 279 276 272
234 221 212 225 238 247 253 254 259 267 272 276 287 298 303 304 305 308 305 307 305 307 310 309 294 284 277 277 279 276 277 278 277 279 279 279 275 270
234 217 214 217 227 234 241 253 257 262 271 282 289 293 299 304 307 307 306 306 306 306 306 309 312 310 300 271 250 266 275 278 280 276 269 272 278 274
242 223 215 217 223 228 233 242 255 262 272 280 285 290 297 300 302 305 309 310 308 306 303 303 304 306 308 307 290 275 285 287 286 280 269 261 268 274
226 214 214 216 219 224 231 241 255 267 272 276 280 285 290 295 300 303 307 309 310 308 307 304 303 305 304 299 296 297 300 295 289 286 282 273 267 272
222 216 213 215 219 222 228 236 246 257 265 271 276 279 285 292 297 301 305 306 308 307 308 308 305 303 298 291 289 295 303 320 323 312 305 293 287 289
236 220 213 212 217 222 226 233 245 254 262 264 271 277 283 288 295 301 304 307 308 307 306 305 307 309 309 307 306 307 313 323 327 334 343 352 338 332
244 233 222 217 219 220 223 230 240 251 254 259 267 275 282 288 293 296 299 303 307 309 311 312 314 314 313 312 314 317 322 326 325 332 334 347 355 4